�������r�C�����j�^�v���󋵏��
Date,Time,5�C6���@���p�r�C��,����,����(m/s)
2021/12/01,00:00,3.8,��쐼,9.5
2021/12/01,00:10,4.0,��,10.2
2021/12/01,00:20,4.3,��,11.8
2021/12/01,00:30,4.0,��쐼,10.3
2021/12/01,00:40,3.9,��,9.9
2021/12/01,00:50,3.8,��,9.7
2021/12/01,01:00,3.9,��,10.7
2021/12/01,01:10,4.0,��,9.5
2021/12/01,01:20,3.9,��,9.8
2021/12/01,01:30,3.9,��,9.3
2021/12/01,01:40,4.0,��쓌,11.8
2021/12/01,01:50,4.0,��쓌,13.3
2021/12/01,02:00,4.0,-,CALM
2021/12/01,02:10,4.1,��,13.6
2021/12/01,02:20,4.1,��,12.7
2021/12/01,02:30,4.0,��,14.6
2021/12/01,02:40,4.1,��,11.3
2021/12/01,02:50,4.0,��,12.0
2021/12/01,03:00,4.1,��,9.4
2021/12/01,03:10,4.1,��,11.3
2021/12/01,03:20,4.0,��,12.2
2021/12/01,03:30,4.0,��쓌,17.2
2021/12/01,03:40,4.0,��,11.6
2021/12/01,03:50,4.0,��쓌,17.7
2021/12/01,04:00,4.0,��쓌,14.9
2021/12/01,04:10,4.0,��,14.1
2021/12/01,04:20,4.0,��,11.7
2021/12/01,04:30,3.9,��,11.6
2021/12/01,04:40,3.9,��,12.1
2021/12/01,04:50,4.0,��,15.8
2021/12/01,05:00,4.0,-,CALM
2021/12/01,05:10,4.0,��쓌,13.6
2021/12/01,05:20,3.9,��쓌,13.8
2021/12/01,05:30,3.9,��,12.7
2021/12/01,05:40,3.9,-,CALM
2021/12/01,05:50,4.0,-,CALM
2021/12/01,06:00,3.8,-,CALM
2021/12/01,06:10,4.0,-,CALM
2021/12/01,06:20,4.0,��,11.3
2021/12/01,06:30,3.9,��쓌,15.7
2021/12/01,06:40,4.0,��,10.2
2021/12/01,06:50,4.0,��,10.3
2021/12/01,07:00,4.1,��,14.6
2021/12/01,07:10,4.1,��,10.9
2021/12/01,07:20,3.9,-,CALM
2021/12/01,07:30,3.9,-,CALM
2021/12/01,07:40,3.9,��쓌,10.5
2021/12/01,07:50,4.1,-,CALM
2021/12/01,08:00,4.1,��쐼,7.5
2021/12/01,08:10,4.0,��쐼,7.9
2021/12/01,08:20,4.0,�쐼,6.9
2021/12/01,08:30,4.0,��쓌,6.3
2021/12/01,08:40,3.9,��쓌,7.6
2021/12/01,08:50,3.8,��쐼,4.2
2021/12/01,09:00,3.8,�쐼,6.0
2021/12/01,09:10,3.8,��쐼,4.8
2021/12/01,09:20,3.9,�쐼,5.6
2021/12/01,09:30,4.0,���쐼,7.7
2021/12/01,09:40,3.9,���k��,12.4
2021/12/01,09:50,4.1,���k��,11.3
2021/12/01,10:00,4.1,-,CALM
2021/12/01,10:10,4.2,-,CALM
2021/12/01,10:20,4.0,���k��,11.7
2021/12/01,10:30,4.0,-,CALM
2021/12/01,10:40,4.0,-,CALM
2021/12/01,10:50,4.0,-,CALM
2021/12/01,11:00,3.9,-,CALM
2021/12/01,11:10,4.1,-,CALM
2021/12/01,11:20,4.0,-,CALM
2021/12/01,11:30,3.9,-,CALM
2021/12/01,11:40,4.0,-,CALM
2021/12/01,11:50,4.1,-,CALM
2021/12/01,12:00,4.0,-,CALM
2021/12/01,12:10,3.9,-,CALM
2021/12/01,12:20,3.8,-,CALM
2021/12/01,12:30,3.9,-,CALM
2021/12/01,12:40,4.0,-,CALM
2021/12/01,12:50,3.9,-,CALM
2021/12/01,13:00,4.0,-,CALM
2021/12/01,13:10,3.9,-,CALM
2021/12/01,13:20,3.9,-,CALM
2021/12/01,13:30,4.2,-,CALM
2021/12/01,13:40,4.0,-,CALM
2021/12/01,13:50,4.0,-,CALM
2021/12/01,14:00,3.8,-,CALM
2021/12/01,14:10,4.1,��,13.9
2021/12/01,14:20,3.8,-,CALM
2021/12/01,14:30,3.9,-,CALM
2021/12/01,14:40,4.1,��,14.6
2021/12/01,14:50,4.0,-,-
2021/12/01,15:00,3.7,-,-
2021/12/01,15:10,4.0,-,-
2021/12/01,15:20,3.9,-,-
2021/12/01,15:30,3.9,-,-
2021/12/01,15:40,3.9,-,-
2021/12/01,15:50,4.0,��,11.3
2021/12/01,16:00,3.9,��,10.0
2021/12/01,16:10,4.0,��,9.3
2021/12/01,16:20,4.0,��,4.9
2021/12/01,16:30,3.9,���k��,7.8
2021/12/01,16:40,4.0,��,4.1
2021/12/01,16:50,3.9,���k��,5.0
2021/12/01,17:00,3.9,��,4.0
2021/12/01,17:10,4.0,��,6.4
2021/12/01,17:20,4.1,���k��,10.0
2021/12/01,17:30,4.1,���k��,6.1
2021/12/01,17:40,4.0,��,6.1
2021/12/01,17:50,4.0,��,5.6
2021/12/01,18:00,3.8,���k��,5.9
2021/12/01,18:10,4.0,���k��,5.4
2021/12/01,18:20,3.9,��,6.0
2021/12/01,18:30,4.1,��,5.7
2021/12/01,18:40,4.1,��,4.7
2021/12/01,18:50,3.9,���쐼,5.5
2021/12/01,19:00,4.0,��,4.9
2021/12/01,19:10,3.9,��,5.9
2021/12/01,19:20,4.0,��,7.3
2021/12/01,19:30,4.1,��,7.0
2021/12/01,19:40,4.0,��,8.7
2021/12/01,19:50,4.0,��,9.5
2021/12/01,20:00,4.0,��,8.3
2021/12/01,20:10,4.0,��,8.1
2021/12/01,20:20,4.0,��,6.6
2021/12/01,20:30,4.0,��,7.5
2021/12/01,20:40,3.9,���k��,8.8
2021/12/01,20:50,4.1,��,8.4
2021/12/01,21:00,3.9,���k��,9.4
2021/12/01,21:10,3.8,���k��,8.5
2021/12/01,21:20,4.1,��,8.9
2021/12/01,21:30,3.9,��,7.8
2021/12/01,21:40,3.9,��,9.4
2021/12/01,21:50,4.0,��,9.3
2021/12/01,22:00,3.9,��,9.1
2021/12/01,22:10,4.0,��,6.4
2021/12/01,22:20,4.1,��,5.4
2021/12/01,22:30,3.9,��,5.3
2021/12/01,22:40,4.1,��,6.1
2021/12/01,22:50,4.0,��,7.1
2021/12/01,23:00,3.9,��,6.8
2021/12/01,23:10,3.9,��,6.6
2021/12/01,23:20,3.9,��,7.0
2021/12/01,23:30,3.9,���k��,7.1
2021/12/01,23:40,3.8,���k��,5.4
2021/12/01,23:50,4.0,���k��,7.5
